Regional Weather Roundup
Issued by NWS

Home | Current Version | Previous Version | Text Only | Print | Product List | Glossary Off
Versions: 1 2 3 4 5 6 7 8 9 10 11 12 13 14 15 16 17 18 19 20 21 22 23 24 25 26 27 28 29 30 31 32 33 34 35 36 37 38 39 40 41 42 43 44 45 46 47 48 49 50

000
ASUS43 KDMX 191207
RWRIA

WEATHER ROUNDUP FOR IOWA
NATIONAL WEATHER SERVICE DES MOINES IA
700 AM CDT TUE AUG 19 2014

NOTE: "FAIR" INDICATES FEW OR NO CLOUDS BELOW 12,000 FEET WITH NO
SIGNIFICANT WEATHER AND/OR OBSTRUCTIONS TO VISIBILITY.

* - THESE STATIONS ARE NOT NWS STATIONS...THUS NOT UNDER NWS
QUALITY CONTROL.  THEY ALSO DO NOT REPORT WEATHER SUCH
AS PRECIPITATION OR FOG.

IAZ001>003-012>014-020>022-031>034-043>046-191300-
   NORTHWEST IOWA

CITY           SKY/WX    TMP DP  RH WIND       PRES   REMARKS
CARROLL *      CLEAR     63  61  94 NW3       29.78R
CHEROKEE *     CLEAR     60  60 100 S3        29.81R FOG
DENISON *      CLEAR     63  63 100 CALM      29.78R
LE MARS *      CLEAR     59  59 100 CALM      29.81R
ORANGE CITY *  CLEAR     63  57  82 NW5       29.80S FOG
SHELDON *      CLEAR     61  61 100 W5        29.79R FOG
SIOUX CITY     CLEAR     62  60  93 NW6       29.80R
6HR MIN TEMP:  62; 6HR MAX TEMP:  67;

SPENCER        CLEAR     62  60  93 NW6       29.78R
6HR MIN TEMP:  61; 6HR MAX TEMP:  65;

STORM LAKE *   CLEAR     61  61 100 W8        29.81R FOG
$$

IAZ055>058-069>071-079>083-090>094-191300-
   SOUTHWEST IOWA

CITY           SKY/WX    TMP DP  RH WIND       PRES   REMARKS
ATLANTIC *     FOG       64  64 100 CALM      29.80R VSB 3/4
AUDUBON *      CLEAR     64  63  94 CALM      29.81R
CLARINDA *     CLEAR     68  68 100 CALM      29.81R
COUNCIL BLFS * MOCLDY    68  68 100 NW5       29.80R
CRESTON *      CLEAR     68  68 100 W5        29.80R
HARLAN  *      PTCLDY    64  64 100 CALM      29.84R
LAMONI         CLOUDY    71  69  93 S6        29.80R FOG
6HR MIN TEMP:  71; 6HR MAX TEMP:  73;

RED OAK *      MOCLDY   N/A N/A N/A MISG        N/A
SHENANDOAH *   CLEAR     66  66 100 CALM      29.80R FOG
$$

IAZ047>049-059>061-072>074-084-191300-
   CENTRAL IOWA

CITY           SKY/WX    TMP DP  RH WIND       PRES   REMARKS
AMES           PTCLDY    67  65  93 NW8       29.75R
6HR MIN TEMP:  65; 6HR MAX TEMP:  72;

ANKENY *       CLEAR     70  68  94 W5        29.75R
CHARITON *     MOCLDY    70  70 100 W8        29.78R FOG
DES MOINES     MOCLDY    70  67  90 SW5       29.76R
6HR MIN TEMP:  70; 6HR MAX TEMP:  74;

GRINNELL*      PTCLDY    66  66 100 SW5       29.76R FOG
KNOXVILLE *    CLEAR     70  68  94 SW6       29.76R
MARSHALLTOWN   CLEAR     65  64  97 NW6       29.74R
6HR MIN TEMP:  64; 6HR MAX TEMP:  73;

PELLA *        MOCLDY    70  69  98 SW5       29.77R
PERRY *          N/A     64  64 100 NW6       29.76R
$$

IAZ004>006-015-016-023>025-035-036-191300-
   NORTH CENTRAL IOWA

CITY           SKY/WX    TMP DP  RH WIND       PRES   REMARKS
ALGONA *       CLEAR     63  63 100 W6        29.77R
CLARION *      CLEAR     63  63 100 W5        29.76S
ESTHERVILLE    CLEAR     61  60  97 W6        29.76S
6HR MIN TEMP:  61; 6HR MAX TEMP:  65;

FORT DODGE *   CLEAR     64  61  88 CALM      29.78R
MASON CITY     CLEAR     63  62  97 NW10      29.75R
6HR MIN TEMP:  62; 6HR MAX TEMP:  68;

FOREST CITY *  CLEAR     63  63 100 W5        29.75R FOG
IOWA FALLS *     N/A     64  63  94 W8        29.76R
$$

IAZ007>011-017>019-026>030-037>042-050>054-066-191300-
   NORTHEAST IOWA

CITY           SKY/WX    TMP DP  RH WIND       PRES   REMARKS
CEDAR RAPIDS   CLEAR     68  68 100 SW5       29.72R FOG
6HR MIN TEMP:  68; 6HR MAX TEMP:  72;

CHARLES CITY * PTCLDY    64  63  94 W7        29.73R FOG
CLINTON *      CLEAR     70  66  88 SW6       29.74S
DECORAH *      CLEAR     64  63  94 CALM      29.69S
DUBUQUE        CLOUDY    69  69 100 W7        29.71R FOG
6HR MIN TEMP:  68; 6HR MAX TEMP:  72; 6HR PCP:  0.01;

MONTICELLO *   CLEAR     70  68  94 SW5       29.71R
OELWEIN *      CLEAR     64  64 100 W7        29.72R
WATERLOO       CLEAR     66  64  93 W8        29.72R
6HR MIN TEMP:  66; 6HR MAX TEMP:  70; 6HR PCP: TRACE;

$$

IAZ064-065-067-068-078-191300-
   EAST CENTRAL IOWA

CITY           SKY/WX    TMP DP  RH WIND       PRES   REMARKS
DAVENPORT      PTCLDY    71  68  90 SW6       29.73R
6HR MIN TEMP:  70; 6HR MAX TEMP:  73;

IOWA CITY      PTCLDY    69  68  96 CALM      29.74R FOG
6HR MIN TEMP:  68; 6HR MAX TEMP:  72;

MT. PLEASANT * MOCLDY    71  69  94 SW5       29.75R FOG
MUSCATINE *    MOCLDY    72  68  88 SW9       29.74R
QUAD CITIES    PTCLDY    72  68  87 SW7       29.72R
6HR MIN TEMP:  72; 6HR MAX TEMP:  73;

$$

IAZ062-063-075>077-085>089-095>099-191300-
   SOUTHEAST IOWA

CITY           SKY/WX    TMP DP  RH WIND       PRES   REMARKS
BURLINGTON     LGT RAIN  70  69  97 SW6       29.75R FOG
6HR MIN TEMP:  69; 6HR MAX TEMP:  70; 6HR PCP:  0.01;

FAIRFIELD *    CLEAR     70  68  94 SW5       29.76R FOG
FORT MADISON * CLEAR     72  72 100 SW5       29.77R FOG
KEOKUK *       CLEAR     70  70 100 SW6       29.76R FOG
OSKALOOSA *      N/A     68  67  97 W3        29.76R FOG
CENTERVILLE *  MOCLDY    70  70 100 SW12      29.83R
OTTUMWA        CLOUDY    70  68  93 SW7       29.76R FOG
6HR MIN TEMP:  69; 6HR MAX TEMP:  71;

WASHINGTON *   PTCLDY    70  70 100 SW7       29.75R FOG
$$

ABBREVIATIONS USED IN REMARKS
   TC - TEMPERATURES IN CELSIUS
  WCI - WIND CHILL INDEX
   HX - HEAT INDEX
  VSB - VISIBILITY
$$



USA.gov is the U.S. government's official web portal to all federal, state and local government web resources and services.